Pierre, SD

10:57 PM CST on December 07, 2016 (GMT -0600)
Pierre Regional

Weather History for KPIR - March, 2013

Change the Weather History Date:

Monday, March 4, 2013

  Actual Average Record
Temperature  
Mean Temperature 30 °F 30 °F  
Max Temperature 39 °F 40 °F 75 °F (2000)
Min Temperature 21 °F 19 °F -18 °F (1960)
Degree Days  
Heating Degree Days 35 35  
Month to date heating degree days 132 143  
Since 1 July heating degree days 5556 5641  
Cooling Degree Days 0 0  
Month to date cooling degree days 0 0  
Year to date cooling degree days 0 0  
Moisture  
Dew Point 23 °F    
Average Humidity 69    
Maximum Humidity 100    
Minimum Humidity 38    
Precipitation  
Precipitation 0.00 in 0.03 in 0.60 in (1966)
Month to date precipitation T 0.12  
Year to date precipitation 1.66 1.13  
Snow  
Snow 0.00 in 0.30 in 5.80 in (1966)
Month to date snowfall T 1.0  
Since 1 July snowfall 31.7 22.8  
Snow Depth 14.00 in    
Sea Level Pressure  
Sea Level Pressure 29.83 in    
Wind  
Wind Speed 23 mph (WNW)    
Max Wind Speed 36 mph    
Max Gust Speed 52 mph    
Visibility 7 miles    
Events Snow    
T = Trace of Precipitation, MM = Missing Value Source: NWS Daily Summary

Daily Weather History Graph

Daily Weather History Graph

Search for Another Location

Airport or City:

Trip Planner

Search our weather history database for the weather conditions in past years. The results will help you decide how hot, cold, wet, or windy it might be!

Date:

Astronomy

Mar. 04, 2013 Rise Set
Actual Time 7:12 AM CST 6:33 PM CST
Civil Twilight 6:43 AM CST 7:02 PM CST
Nautical Twilight 6:10 AM CST 7:36 PM CST
Astronomical Twilight 5:36 AM CST 8:10 PM CST
Moon 1:33 AM CST (3/4) 11:06 AM CST (3/4)
Length of Visible Light 12h 18m
Length of Day
11h 20m
Waning Gibbous, 52% of the Moon is Illuminated
Mar 4
Waning Gibbous
Mar 4
Last Quarter
Mar 11
New
Mar 19
First Quarter
Mar 27
Full

Hourly Weather History & Observations

Time (CST) Temp. Windchill Dew Point Humidity Pressure Visibility Wind Dir Wind Speed Gust Speed Precip Events Conditions
12:53 AM 32.0 °F - 30.0 °F 92% 29.65 in 5.0 mi Calm Calm - N/A   Overcast
1:53 AM 32.0 °F - 30.0 °F 92% 29.66 in 4.0 mi Calm Calm - N/A   Overcast
2:53 AM 32.0 °F 26.4 °F 30.0 °F 92% 29.69 in 3.0 mi WNW 5.8 mph - N/A   Overcast
3:33 AM 32.0 °F 25.6 °F 30.2 °F 93% 29.67 in 2.5 mi WNW 6.9 mph - 0.00 in Snow Light Snow
3:42 AM 32.0 °F 25.6 °F 30.2 °F 93% 29.67 in 1.2 mi WNW 6.9 mph - 0.00 in Snow Light Snow
3:53 AM 32.0 °F 25.6 °F 30.0 °F 92% 29.70 in 2.0 mi WNW 6.9 mph - 0.00 in Snow Light Snow
4:10 AM 32.0 °F 24.2 °F 30.2 °F 93% 29.68 in 2.0 mi West 9.2 mph - 0.00 in   Overcast
4:19 AM 32.0 °F 24.2 °F 30.2 °F 93% 29.68 in 1.8 mi West 9.2 mph - 0.00 in   Overcast
4:39 AM 32.0 °F 24.8 °F 30.2 °F 93% 29.69 in 2.0 mi West 8.1 mph - 0.00 in   Overcast
4:48 AM 32.0 °F 24.8 °F 30.2 °F 93% 29.69 in 2.0 mi West 8.1 mph - 0.00 in   Overcast
4:53 AM 32.0 °F 24.2 °F 30.9 °F 96% 29.73 in 2.5 mi West 9.2 mph - 0.00 in   Overcast
5:01 AM 32.0 °F 24.2 °F 30.2 °F 93% 29.68 in 2.5 mi WNW 9.2 mph - N/A   Overcast
5:19 AM 32.0 °F 24.2 °F 30.2 °F 93% 29.69 in 3.0 mi WNW 9.2 mph - N/A   Overcast
5:53 AM 30.9 °F 24.3 °F 30.0 °F 96% 29.74 in 5.0 mi WNW 6.9 mph - N/A   Mostly Cloudy
6:53 AM 30.9 °F 23.5 °F 28.0 °F 89% 29.77 in 10.0 mi West 8.1 mph - N/A   Partly Cloudy
7:53 AM 32.0 °F 21.2 °F 25.0 °F 75% 29.80 in 10.0 mi NW 16.1 mph - N/A   Clear
8:53 AM 33.1 °F 23.4 °F 24.1 °F 70% 29.82 in 10.0 mi WNW 13.8 mph - N/A   Clear
9:53 AM 34.0 °F 21.3 °F 21.9 °F 61% 29.83 in 10.0 mi WNW 25.3 mph 31.1 mph N/A   Clear
10:53 AM 36.0 °F 23.5 °F 21.0 °F 55% 29.86 in 10.0 mi WNW 27.6 mph 42.6 mph N/A   Partly Cloudy
11:53 AM 37.9 °F 25.7 °F 19.9 °F 48% 29.84 in 10.0 mi West 29.9 mph 39.1 mph N/A   Partly Cloudy
12:53 PM 37.0 °F 23.5 °F 17.1 °F 44% 29.84 in 10.0 mi WNW 35.7 mph 40.3 mph N/A   Partly Cloudy
1:53 PM 37.0 °F 24.1 °F 16.0 °F 42% 29.82 in 10.0 mi WNW 32.2 mph 43.7 mph N/A   Partly Cloudy
2:53 PM 35.1 °F 20.8 °F 12.9 °F 40% 29.85 in 10.0 mi WNW 35.7 mph 43.7 mph N/A   Partly Cloudy
3:53 PM 33.1 °F 19.3 °F 14.0 °F 46% 29.87 in 10.0 mi West 28.8 mph 40.3 mph N/A   Scattered Clouds
4:53 PM 30.0 °F 14.5 °F 18.0 °F 61% 29.89 in 9.0 mi WNW 32.2 mph 44.9 mph 0.00 in   Mostly Cloudy
5:27 PM 26.6 °F 10.8 °F 21.2 °F 80% 29.86 in 9.0 mi WNW 27.6 mph 42.6 mph 0.00 in Snow Light Snow
5:53 PM 26.1 °F 9.1 °F 21.0 °F 81% 29.94 in 9.0 mi WNW 32.2 mph 41.4 mph 0.00 in Snow Light Snow
6:32 PM 24.8 °F 8.1 °F 21.2 °F 86% 29.91 in 9.0 mi WNW 28.8 mph 36.8 mph 0.00 in Snow Light Snow
6:50 PM 24.8 °F 6.8 °F 17.6 °F 74% 29.92 in 9.0 mi WNW 34.5 mph 44.9 mph 0.00 in Snow Light Snow
6:53 PM 25.0 °F 6.9 °F 18.0 °F 75% 29.98 in 9.0 mi WNW 35.7 mph 44.9 mph 0.00 in Snow Light Snow
7:53 PM 25.0 °F 7.1 °F 17.1 °F 72% 30.02 in 9.0 mi WNW 34.5 mph 42.6 mph 0.00 in Snow Light Snow
8:53 PM 24.1 °F 6.1 °F 15.1 °F 69% 30.04 in 10.0 mi WNW 33.4 mph 44.9 mph 0.00 in   Overcast
9:53 PM 23.0 °F 5.4 °F 14.0 °F 68% 30.05 in 9.0 mi WNW 29.9 mph 44.9 mph 0.00 in Snow Light Snow
10:03 PM 23.0 °F 3.9 °F 15.8 °F 74% 30.00 in 9.0 mi WNW 36.8 mph 49.5 mph 0.00 in Snow Light Snow
10:53 PM 21.9 °F 2.9 °F 16.0 °F 78% 30.07 in 9.0 mi NW 34.5 mph 48.3 mph 0.00 in Snow Light Snow
11:15 PM 21.2 °F 1.7 °F 17.6 °F 86% 30.02 in 9.0 mi WNW 35.7 mph 46.0 mph 0.00 in Snow Light Snow
11:40 PM 21.2 °F 1.2 °F 15.8 °F 80% 30.01 in 9.0 mi NW 38.0 mph 49.5 mph 0.00 in Snow Light Snow
11:53 PM 21.9 °F 2.6 °F 16.0 °F 78% 30.06 in 9.0 mi NW 35.7 mph 49.5 mph 0.00 in Snow Light Snow